Page, AZ

9:12 AM MDT on October 01, 2016 (GMT -0600)
Page Municipal

Weather History for KPGA - February, 2012

Change the Weather History Date:

Wednesday, February 8, 2012

  Actual Average Record
Temperature  
Mean Temperature 46 °F -  
Max Temperature 53 °F 46 °F 64 °F (2015)
Min Temperature 39 °F 29 °F 10 °F (1989)
Degree Days  
Heating Degree Days 19    
Moisture  
Dew Point 21 °F    
Average Humidity 39    
Maximum Humidity 49    
Minimum Humidity 25    
Precipitation  
Precipitation 0.00 in - - ()
Sea Level Pressure  
Sea Level Pressure 30.19 in    
Wind  
Wind Speed 1 mph (NNE)    
Max Wind Speed 7 mph    
Max Gust Speed -    
Visibility 9 miles    
Events      
Averages and records for this station are not official NWS values.
T = Trace of Precipitation, MM = Missing Value Source: NWS Daily Summary

Daily Weather History Graph

Daily Weather History Graph

Search for Another Location

Airport or City:

Trip Planner

Search our weather history database for the weather conditions in past years. The results will help you decide how hot, cold, wet, or windy it might be!

Date:

Astronomy

Feb. 08, 2012 Rise Set
Actual Time 7:22 AM MST 5:58 PM MST
Civil Twilight 6:55 AM MST 6:25 PM MST
Nautical Twilight 6:24 AM MST 6:55 PM MST
Astronomical Twilight 5:54 AM MST 7:26 PM MST
Moon 7:18 PM MST (2/8) 7:30 AM MST (2/8)
Length of Visible Light 11h 29m
Length of Day
10h 35m
Full, 99% of the Moon is Illuminated
Feb 8
Full
Feb 14
Last Quarter
Feb 21
New
Feb 29
First Quarter
Mar 8
Full

Hourly Weather History & Observations

Time (MST) Temp. Windchill Dew Point Humidity Pressure Visibility Wind Dir Wind Speed Gust Speed Precip Events Conditions
12:53 AM 42.1 °F - 21.9 °F 45% 30.17 in 7.0 mi Calm Calm - N/A   Scattered Clouds
1:53 AM 41.0 °F - 21.9 °F 47% 30.17 in 6.0 mi Calm Calm - N/A   Haze
2:53 AM 39.9 °F - 21.9 °F 49% 30.18 in 5.0 mi Calm Calm - N/A   Haze
3:53 AM 39.9 °F - 21.9 °F 49% 30.18 in 10.0 mi Calm Calm - N/A   Clear
4:53 AM 39.9 °F - 21.9 °F 49% 30.19 in 10.0 mi Calm Calm - N/A   Scattered Clouds
5:53 AM 39.9 °F - 21.0 °F 47% 30.20 in 10.0 mi Calm Calm - N/A   Clear
6:53 AM 39.0 °F - 21.0 °F 49% 30.21 in 7.0 mi Calm Calm - N/A   Clear
7:53 AM 39.9 °F - 21.0 °F 47% 30.23 in 10.0 mi Calm Calm - N/A   Partly Cloudy
8:53 AM 42.8 °F - 21.2 °F 42% 30.26 in 10.0 mi Calm Calm - N/A   Clear
9:53 AM 46.0 °F - 21.0 °F 37% 30.23 in 10.0 mi Calm Calm - N/A   Clear
10:53 AM 46.9 °F - 23.0 °F 39% 30.23 in 10.0 mi NNW 4.6 mph - N/A   Clear
11:53 AM 48.0 °F - 21.9 °F 36% 30.23 in 10.0 mi North 4.6 mph - N/A   Clear
12:53 PM 50.0 °F - 21.9 °F 33% 30.19 in 10.0 mi North 6.9 mph - N/A   Clear
1:53 PM 52.0 °F - 21.0 °F 30% 30.16 in 10.0 mi NNE 4.6 mph - N/A   Clear
2:53 PM 52.0 °F - 19.0 °F 27% 30.14 in 10.0 mi Calm Calm - N/A   Partly Cloudy
3:53 PM 53.1 °F - 18.0 °F 25% 30.13 in 10.0 mi NE 5.8 mph - N/A   Mostly Cloudy
4:53 PM 53.1 °F - 19.9 °F 27% 30.14 in 10.0 mi East 3.5 mph - N/A   Overcast
5:53 PM 51.1 °F - 19.9 °F 29% 30.15 in 10.0 mi Calm Calm - N/A   Mostly Cloudy
6:53 PM 51.1 °F - 19.9 °F 29% 30.18 in 10.0 mi North 4.6 mph - N/A   Clear
7:53 PM 50.0 °F - 19.9 °F 31% 30.19 in 10.0 mi Calm Calm - N/A   Scattered Clouds
8:53 PM 48.9 °F - 19.9 °F 32% 30.19 in 10.0 mi Calm Calm - N/A   Scattered Clouds
9:53 PM 45.0 °F 42.6 °F 21.0 °F 39% 30.20 in 10.0 mi SW 4.6 mph - N/A   Clear
10:53 PM 43.0 °F - 21.0 °F 42% 30.22 in 7.0 mi Calm Calm - N/A   Clear
11:53 PM 41.0 °F - 21.9 °F 47% 30.23 in 10.0 mi Calm Calm - N/A   Clear